Location: Unspecified
(0.0000°N, 0.0000°E)
Time: 18:03:27
(UTC+00:00)

S-56A Canister/Altair - Visible Passes

Search period start: 15 March 2026 00:00
Search period end: 25 March 2026 00:00
Orbit: 633 x 2484 km, 38.9° (Epoch: 15 March)

Date Brightness Start Highest point End Pass type
(mag) Time Alt. Az. Time Alt. Az. Time Alt. Az.
21 Mar 11.7 05:48:05 10° SSE 05:51:24 11° SSE 05:54:49 10° SE visible
23 Mar 9.3 19:32:03 10° N 19:33:28 14° NNE 19:33:28 14° NNE visible
24 Mar 9.2 18:58:12 10° NNE 18:59:52 12° NE 19:00:52 11° NE visible
